LZB5228 LQMO-LBSF

Flight info

Callsign LZB5228
Flight time 0h 54m
Altitude 37000
Route XELMI DCT PODOB DCT NISVA
Aircraft A320/M-SDE3FGHIRWY/LB1

Departure

Time 2026-04-26 16:28
Airport Mostar International Airport (LQMO)

Arrival

Time 2026-04-26 17:22
Airport Sofia Airport (LBSF)
Time Latitude Longitude Altitude Speed Heading
2026-04-26 16:11 43.29024 17.83721 218 ft 0 kts 15°
2026-04-26 16:26 43.29035 17.83727 214 ft 5 kts 30°
2026-04-26 16:26 43.29062 17.83781 215 ft 7 kts 60°
2026-04-26 16:26 43.29133 17.83787 214 ft 14 kts 338°
2026-04-26 16:27 43.29224 17.83798 213 ft 15 kts 68°
2026-04-26 16:27 43.29259 17.83930 215 ft 13 kts 67°
2026-04-26 16:27 43.29266 17.84037 219 ft 10 kts 132°
2026-04-26 16:27 43.29200 17.84079 219 ft 24 kts 157°
2026-04-26 16:28 43.28760 17.84325 218 ft 110 kts 158°
2026-04-26 16:28 43.27837 17.84842 439 ft 159 kts 157°
2026-04-26 16:28 43.26799 17.85376 1193 ft 168 kts 168°
2026-04-26 16:28 43.25656 17.85127 2016 ft 174 kts 206°
2026-04-26 16:29 43.24587 17.84312 2643 ft 182 kts 212°
2026-04-26 16:29 43.23449 17.83377 3083 ft 199 kts 212°
2026-04-26 16:29 43.22213 17.82412 3517 ft 216 kts 210°
2026-04-26 16:29 43.20821 17.81337 3888 ft 239 kts 216°
2026-04-26 16:30 43.19709 17.79610 4394 ft 252 kts 248°
2026-04-26 16:30 43.19186 17.77321 5170 ft 255 kts 259°
2026-04-26 16:30 43.18792 17.74936 5962 ft 259 kts 258°
2026-04-26 16:30 43.18351 17.72552 6735 ft 265 kts 256°
2026-04-26 16:31 43.17841 17.70113 7514 ft 268 kts 256°
2026-04-26 16:31 43.17646 17.67589 8291 ft 268 kts 282°
2026-04-26 16:31 43.18339 17.65289 9013 ft 266 kts 310°
2026-04-26 16:31 43.19738 17.63594 9484 ft 276 kts 329°
2026-04-26 16:32 43.21365 17.62140 10081 ft 286 kts 329°
2026-04-26 16:32 43.23046 17.60612 10708 ft 295 kts 328°
2026-04-26 16:32 43.24768 17.59013 11325 ft 303 kts 328°
2026-04-26 16:32 43.26516 17.57367 12067 ft 306 kts 328°
2026-04-26 16:33 43.28403 17.56040 12779 ft 306 kts 347°
2026-04-26 16:33 43.30492 17.55862 13454 ft 307 kts
2026-04-26 16:33 43.32482 17.56815 14137 ft 310 kts 31°
2026-04-26 16:33 43.34095 17.58811 14794 ft 314 kts 53°
2026-04-26 16:34 43.35268 17.61316 15431 ft 318 kts 57°
2026-04-26 16:34 43.36442 17.63914 16051 ft 321 kts 57°
2026-04-26 16:34 43.37617 17.66500 16675 ft 324 kts 57°
2026-04-26 16:34 43.38820 17.69137 17289 ft 327 kts 57°
2026-04-26 16:35 43.40027 17.71780 17849 ft 330 kts 57°
2026-04-26 16:35 43.41245 17.74445 18440 ft 333 kts 57°
2026-04-26 16:35 43.42468 17.77121 19023 ft 335 kts 57°
2026-04-26 16:35 43.43723 17.79869 19585 ft 338 kts 57°
2026-04-26 16:36 43.44972 17.82606 20151 ft 340 kts 57°
2026-04-26 16:36 43.46222 17.85347 20703 ft 343 kts 57°
2026-04-26 16:36 43.47491 17.88132 21228 ft 346 kts 57°
2026-04-26 16:36 43.48769 17.90940 21754 ft 348 kts 57°
2026-04-26 16:37 43.50042 17.93739 22277 ft 350 kts 57°
2026-04-26 16:37 43.51337 17.96588 22772 ft 353 kts 57°
2026-04-26 16:37 43.52647 17.99474 23252 ft 355 kts 57°
2026-04-26 16:37 43.53944 18.02335 23714 ft 358 kts 57°
2026-04-26 16:38 43.55270 18.05263 24160 ft 362 kts 57°
2026-04-26 16:38 43.56601 18.08206 24604 ft 365 kts 57°
2026-04-26 16:38 43.57952 18.11203 25028 ft 368 kts 58°
2026-04-26 16:38 43.58996 18.14381 25403 ft 373 kts 72°
2026-04-26 16:39 43.59447 18.17928 25805 ft 378 kts 86°
2026-04-26 16:39 43.59342 18.21540 26206 ft 381 kts 93°
2026-04-26 16:39 43.59109 18.25160 26587 ft 384 kts 94°
2026-04-26 16:39 43.58859 18.28854 26962 ft 387 kts 94°
2026-04-26 16:40 43.58612 18.32564 27333 ft 390 kts 94°
2026-04-26 16:40 43.58369 18.36262 27683 ft 393 kts 93°
2026-04-26 16:40 43.58125 18.40032 28035 ft 396 kts 93°
2026-04-26 16:40 43.57883 18.43794 28373 ft 399 kts 93°
2026-04-26 16:41 43.57638 18.47597 28703 ft 401 kts 93°
2026-04-26 16:41 43.57392 18.51418 29028 ft 404 kts 93°
2026-04-26 16:41 43.57140 18.55311 29356 ft 406 kts 94°
2026-04-26 16:41 43.56888 18.59186 29674 ft 409 kts 94°
2026-04-26 16:42 43.56634 18.63061 29984 ft 411 kts 94°
2026-04-26 16:42 43.56378 18.66973 30282 ft 414 kts 94°
2026-04-26 16:42 43.56117 18.70929 30569 ft 416 kts 94°
2026-04-26 16:42 43.55851 18.74943 30850 ft 418 kts 94°
2026-04-26 16:43 43.55589 18.78881 31121 ft 420 kts 94°
2026-04-26 16:43 43.55318 18.82921 31399 ft 422 kts 94°
2026-04-26 16:43 43.55048 18.86927 31659 ft 424 kts 94°
2026-04-26 16:43 43.54770 18.91026 31919 ft 426 kts 94°
2026-04-26 16:44 43.54495 18.95076 32208 ft 428 kts 94°
2026-04-26 16:44 43.54217 18.99161 32471 ft 429 kts 94°
2026-04-26 16:44 43.53936 19.03260 32723 ft 431 kts 94°
2026-04-26 16:44 43.53653 19.07349 32958 ft 432 kts 94°
2026-04-26 16:45 43.53365 19.11478 33186 ft 434 kts 95°
2026-04-26 16:45 43.52976 19.15645 33401 ft 437 kts 98°
2026-04-26 16:45 43.52446 19.19723 33610 ft 439 kts 99°
2026-04-26 16:45 43.51881 19.23843 33831 ft 440 kts 99°
2026-04-26 16:46 43.51310 19.27976 34034 ft 442 kts 99°
2026-04-26 16:46 43.50727 19.32186 34228 ft 444 kts 99°
2026-04-26 16:46 43.50156 19.36313 34424 ft 445 kts 99°
2026-04-26 16:46 43.49574 19.40513 34615 ft 447 kts 99°
2026-04-26 16:47 43.48987 19.44749 34805 ft 448 kts 99°
2026-04-26 16:47 43.48401 19.48972 35010 ft 449 kts 99°
2026-04-26 16:47 43.47816 19.53165 35263 ft 449 kts 99°
2026-04-26 16:47 43.47232 19.57352 35492 ft 449 kts 99°
2026-04-26 16:48 43.46638 19.61594 35683 ft 450 kts 99°
2026-04-26 16:48 43.46051 19.65777 35832 ft 451 kts 100°
2026-04-26 16:48 43.45453 19.70026 35984 ft 452 kts 100°
2026-04-26 16:48 43.44850 19.74297 36146 ft 453 kts 100°
2026-04-26 16:49 43.44251 19.78528 36294 ft 454 kts 100°
2026-04-26 16:49 43.43653 19.82739 36430 ft 454 kts 100°
2026-04-26 16:49 43.43041 19.87035 36573 ft 455 kts 100°
2026-04-26 16:49 43.42434 19.91282 36716 ft 455 kts 100°
2026-04-26 16:50 43.41827 19.95526 36864 ft 456 kts 100°
2026-04-26 16:50 43.41215 19.99787 36988 ft 456 kts 100°
2026-04-26 16:50 43.40599 20.04067 37092 ft 457 kts 100°
2026-04-26 16:50 43.39977 20.08372 37155 ft 459 kts 100°
2026-04-26 16:51 43.38732 20.16962 37159 ft 460 kts 100°
2026-04-26 16:51 43.37475 20.25584 37164 ft 460 kts 100°
2026-04-26 16:52 43.36431 20.32703 37161 ft 461 kts 100°
2026-04-26 16:52 43.34952 20.42753 37159 ft 461 kts 100°
2026-04-26 16:53 43.33676 20.51356 37155 ft 461 kts 100°
2026-04-26 16:53 43.32399 20.59925 37151 ft 461 kts 100°
2026-04-26 16:54 43.31110 20.68529 37159 ft 461 kts 101°
2026-04-26 16:54 43.29819 20.77095 37153 ft 461 kts 101°
2026-04-26 16:55 43.28513 20.85725 37153 ft 461 kts 101°
2026-04-26 16:55 43.27210 20.94281 37147 ft 462 kts 101°
2026-04-26 16:56 43.25890 21.02906 36834 ft 461 kts 101°
2026-04-26 16:56 43.25230 21.07198 36550 ft 459 kts 101°
2026-04-26 16:56 43.24578 21.11425 36261 ft 456 kts 101°
2026-04-26 16:57 43.23926 21.15643 35976 ft 454 kts 101°
2026-04-26 16:57 43.23270 21.19876 35576 ft 453 kts 101°
2026-04-26 16:57 43.21958 21.28319 34451 ft 453 kts 101°
2026-04-26 16:58 43.21315 21.32445 34011 ft 448 kts 101°
2026-04-26 16:58 43.20874 21.35261 33747 ft 446 kts 101°
2026-04-26 16:58 43.19379 21.44788 32785 ft 438 kts 101°
2026-04-26 16:59 43.18739 21.48842 32346 ft 435 kts 101°
2026-04-26 16:59 43.17475 21.56832 31488 ft 428 kts 101°
2026-04-26 17:00 43.16224 21.64702 30625 ft 421 kts 101°
2026-04-26 17:00 43.14988 21.72443 29769 ft 415 kts 101°
2026-04-26 17:00 43.14372 21.76281 29330 ft 412 kts 101°
2026-04-26 17:01 43.13761 21.80087 28903 ft 408 kts 101°
2026-04-26 17:01 43.13154 21.83857 28478 ft 405 kts 101°
2026-04-26 17:01 43.12553 21.87581 28057 ft 402 kts 101°
2026-04-26 17:01 43.11953 21.91295 27638 ft 398 kts 101°
2026-04-26 17:02 43.11360 21.94952 27211 ft 395 kts 101°
2026-04-26 17:02 43.10767 21.98610 26782 ft 392 kts 101°
2026-04-26 17:02 43.10177 22.02236 26353 ft 389 kts 101°
2026-04-26 17:02 43.09597 22.05792 25944 ft 386 kts 101°
2026-04-26 17:03 43.09010 22.09381 25520 ft 383 kts 101°
2026-04-26 17:03 43.08434 22.12892 25112 ft 380 kts 100°
2026-04-26 17:03 43.07862 22.16376 24689 ft 378 kts 100°
2026-04-26 17:03 43.07284 22.19892 24262 ft 375 kts 100°
2026-04-26 17:04 43.06721 22.23310 23856 ft 372 kts 100°
2026-04-26 17:04 43.06151 22.26766 23442 ft 369 kts 100°
2026-04-26 17:04 43.05595 22.30135 23041 ft 367 kts 99°
2026-04-26 17:04 43.05037 22.33504 22630 ft 364 kts 100°
2026-04-26 17:05 43.04479 22.36871 22222 ft 361 kts 99°
2026-04-26 17:05 43.03923 22.40218 21807 ft 359 kts 100°
2026-04-26 17:05 43.03374 22.43518 21411 ft 356 kts 100°
2026-04-26 17:05 43.02824 22.46809 21014 ft 354 kts 100°
2026-04-26 17:06 43.02283 22.50043 20617 ft 352 kts 99°
2026-04-26 17:06 43.01738 22.53300 20212 ft 350 kts 100°
2026-04-26 17:06 43.01195 22.56534 19821 ft 348 kts 99°
2026-04-26 17:06 43.00660 22.59718 19426 ft 346 kts 99°
2026-04-26 17:07 42.99954 22.62885 18981 ft 349 kts 111°
2026-04-26 17:07 42.98844 22.65826 18496 ft 351 kts 117°
2026-04-26 17:07 42.97641 22.68713 17971 ft 354 kts 118°
2026-04-26 17:07 42.96414 22.71678 17423 ft 356 kts 117°
2026-04-26 17:08 42.95223 22.74620 16873 ft 349 kts 117°
2026-04-26 17:08 42.94091 22.77469 16369 ft 345 kts 116°
2026-04-26 17:08 42.92965 22.80343 16136 ft 344 kts 116°
2026-04-26 17:08 42.91839 22.83236 16013 ft 339 kts 116°
2026-04-26 17:09 42.90759 22.86015 15227 ft 339 kts 115°
2026-04-26 17:09 42.90018 22.87930 14636 ft 341 kts 115°
2026-04-26 17:09 42.88559 22.91695 14132 ft 335 kts 115°
2026-04-26 17:09 42.87470 22.94509 13754 ft 333 kts 115°
2026-04-26 17:10 42.86398 22.97272 13376 ft 332 kts 115°
2026-04-26 17:10 42.85323 23.00043 12995 ft 330 kts 115°
2026-04-26 17:10 42.84251 23.02803 12629 ft 331 kts 115°
2026-04-26 17:10 42.83179 23.05562 12257 ft 329 kts 115°
2026-04-26 17:11 42.82106 23.08317 11886 ft 327 kts 115°
2026-04-26 17:11 42.81043 23.11046 11513 ft 325 kts 115°
2026-04-26 17:11 42.79996 23.13732 11140 ft 324 kts 115°
2026-04-26 17:11 42.78942 23.16431 10764 ft 322 kts 115°
2026-04-26 17:12 42.76865 23.21746 10089 ft 307 kts 115°
2026-04-26 17:12 42.75862 23.24309 9966 ft 308 kts 115°
2026-04-26 17:13 42.73927 23.29248 9184 ft 284 kts 115°
2026-04-26 17:13 42.73010 23.31580 8878 ft 278 kts 114°
2026-04-26 17:13 42.71218 23.36149 8316 ft 265 kts 114°
2026-04-26 17:14 42.70361 23.38333 8065 ft 260 kts 114°
2026-04-26 17:14 42.68686 23.42594 8053 ft 254 kts 114°
2026-04-26 17:14 42.67847 23.44726 8054 ft 254 kts 114°
2026-04-26 17:15 42.66183 23.48952 8034 ft 252 kts 114°
2026-04-26 17:15 42.65360 23.51035 7790 ft 251 kts 114°
2026-04-26 17:15 42.64537 23.53115 7220 ft 257 kts 114°
2026-04-26 17:16 42.63675 23.55301 6438 ft 268 kts 114°
2026-04-26 17:16 42.62791 23.57540 5845 ft 276 kts 114°
2026-04-26 17:16 42.61905 23.59767 5583 ft 261 kts 114°
2026-04-26 17:16 42.61288 23.62013 5409 ft 242 kts 86°
2026-04-26 17:17 42.61677 23.64053 5282 ft 220 kts 47°
2026-04-26 17:17 42.62852 23.65271 5000 ft 210 kts 15°
2026-04-26 17:17 42.64271 23.65548 4735 ft 205 kts
2026-04-26 17:17 42.65686 23.65634 4539 ft 200 kts
2026-04-26 17:18 42.67016 23.65326 4271 ft 195 kts 330°
2026-04-26 17:18 42.67894 23.64037 4182 ft 182 kts 300°
2026-04-26 17:18 42.68280 23.62413 4243 ft 180 kts 288°
2026-04-26 17:18 42.68481 23.60722 4081 ft 180 kts 283°
2026-04-26 17:19 42.68727 23.57324 3651 ft 181 kts 280°
2026-04-26 17:19 42.68822 23.55620 3414 ft 181 kts 280°
2026-04-26 17:19 42.68915 23.53946 3206 ft 170 kts 280°
2026-04-26 17:20 42.69001 23.52426 2967 ft 156 kts 280°
2026-04-26 17:20 42.69056 23.51475 2816 ft 146 kts 280°
2026-04-26 17:20 42.69159 23.49748 2560 ft 129 kts 280°
2026-04-26 17:20 42.69233 23.48551 2411 ft 128 kts 279°
2026-04-26 17:21 42.69306 23.47337 2258 ft 128 kts 279°
2026-04-26 17:21 42.69374 23.46129 2091 ft 128 kts 278°
2026-04-26 17:21 42.69448 23.44935 1924 ft 127 kts 278°
2026-04-26 17:21 42.69521 23.43740 1777 ft 124 kts 278°
2026-04-26 17:22 42.69588 23.42688 1761 ft 92 kts 275°
2026-04-26 17:22 42.69626 23.42041 1761 ft 55 kts 275°
2026-04-26 17:22 42.69623 23.41718 1761 ft 26 kts 257°
2026-04-26 17:22 42.69572 23.41536 1761 ft 5 kts 245°
2026-04-26 17:23 42.69556 23.41489 1761 ft 6 kts 246°
2026-04-26 17:23 42.69537 23.41433 1761 ft 7 kts 247°
2026-04-26 17:23 42.69516 23.41368 1761 ft 8 kts 245°
2026-04-26 17:23 42.69491 23.41294 1761 ft 9 kts 250°
2026-04-26 17:24 42.69425 23.41205 1761 ft 20 kts 195°
2026-04-26 17:24 42.69284 23.41161 1761 ft 20 kts 193°
2026-04-26 17:24 42.69147 23.41118 1761 ft 19 kts 211°
2026-04-26 17:24 42.69090 23.40955 1761 ft 19 kts 254°
2026-04-26 17:25 42.69053 23.40778 1761 ft 16 kts 271°
2026-04-26 17:25 42.69031 23.40703 1761 ft 6 kts 199°
2026-04-26 17:25 42.68993 23.40688 1761 ft 3 kts 195°
2026-04-26 17:25 42.68986 23.40686 1761 ft 0 kts 196°